Regional Weather Roundup
Issued by NWS

Home | Current Version | Previous Version | Graphics & Text | Print | Product List | Glossary On
Versions: 1 2 3 4 5 6 7 8 9 10 11 12 13 14 15 16 17 18 19 20 21 22 23 24 25 26 27 28 29 30 31 32 33 34 35 36 37 38 39 40 41 42 43 44 45 46 47 48 49 50
000
ASUS45 KCYS 100310
RWRWY

WYOMING REGIONAL WEATHER ROUNDUP
NATIONAL WEATHER SERVICE CHEYENNE WY
800 PM MST TUE FEB 09 2016

NOTE:  "FAIR" INDICATES FEW OR NO CLOUDS BELOW 12,000 FEET
WITH NO SIGNIFICANT WEATHER AND/OR OBSTRUCTIONS TO VISIBILITY.

WYZ001-100400-
YELLOWSTONE NATIONAL PARK

CITY           SKY/WX    TMP DP  RH WIND       PRES   REMARKS
LK YELLOWSTONE   N/A     20  16  84 NW3       30.46S
W YELLOWSTONE  NOT AVBL

$$
WYZ002>013-054>058-071-098>099-100400-
NORTHERN WYOMING

CITY           SKY/WX    TMP DP  RH WIND       PRES   REMARKS
JACKSON        CLEAR     16  16 100 CALM      30.46S
CODY           FAIR      36  21  55 CALM      30.22F
GREYBULL       FAIR      35  25  66 SE3       30.23S
WORLAND        FAIR      33  25  72 N5        30.23S WCI  29
SHERIDAN       CLEAR     45  19  36 S3        30.10F
BUFFALO        FAIR      46  23  40 S6        30.16F
GILLETTE       FAIR      40  28  62 SW14      30.14F WCI  32
HULETT         FAIR      41  28  60 SW5       30.12F
NEWCASTLE      FAIR      37  28  70 N10       30.14F WCI  30

$$
WYZ014>020-022>026-101>103-100400-
CENTRAL WYOMING

CITY           SKY/WX    TMP DP  RH WIND       PRES   REMARKS
BIG PINEY      FAIR      28  19  69 E6        30.41R WCI  22
PINEDALE       FAIR      28  23  80 CALM      30.42S
DUBOIS         FAIR      37  16  41 NW21      30.36S WCI  27
LANDER         FAIR      30  20  66 E5        30.28F WCI  25
RIVERTON       FAIR      29  20  69 SE3       30.30F
CASPER         FAIR      35  23  61 SW21      30.25F WCI  24
DOUGLAS        FAIR      35  25  66 NW9         N/A  WCI  28

$$
WYZ021-027>030-104>119-100400-
SOUTHERN WYOMING

CITY           SKY/WX    TMP DP  RH WIND       PRES   REMARKS
EVANSTON       FAIR      31  22  69 S5        30.46F WCI  26
KEMMERER       FAIR      32  21  64 SW7       30.45S WCI  26
FORT BRIDGER   CLEAR     37  23  56 W20       30.46F WCI  27
ROCK SPRINGS   FAIR      35  23  61 SW12      30.40F WCI  27
DIXON          FAIR      19  14  79 E3        30.48S
RAWLINS        FAIR      27  18  69 E7        30.38S WCI  19
SARATOGA       FAIR      21  18  86 S8        30.41S WCI  12
LARAMIE        FAIR      27  20  75 SE8       30.33F WCI  19
CHEYENNE       FAIR      41  18  39 W13       30.26F
TORRINGTON     FAIR      39  26  59 NW14G20   30.18F WCI  31
PINE BLUFFS    FAIR      37  27  65 W12       30.24S WCI  30

$$



USA.gov is the U.S. government's official web portal to all federal, state and local government web resources and services.